Regional Weather Roundup
Issued by NWS

Home | Current Version | Previous Version | Graphics & Text | Print | Product List | Glossary On
Versions: 1 2 3 4 5 6 7 8 9 10 11 12 13 14 15 16 17 18 19 20 21 22 23 24 25 26 27 28 29 30 31 32 33 34 35 36 37 38 39 40 41 42 43 44 45 46 47 48 49 50
000
ASUS43 KLMK 302110
RWRKY
KENTUCKY REGIONAL WEATHER ROUNDUP
NATIONAL WEATHER SERVICE LOUISVILLE KY
500 PM EDT TUE JUN 30 2015

NOTE "FAIR" INDICATES FEW OR NO CLOUDS BELOW 12,000 FEET
WITH NO SIGNIFICANT WEATHER AND/OR OBSTRUCTIONS TO VISIBILITY.

KYZ001>023-026-027-061>063-070>075-302200-
WESTERN AND SOUTH CENTRAL KENTUCKY

CITY           SKY/WX    TMP DP  RH WIND       PRES   REMARKS
PADUCAH        SUNNY     86  66  51 W8G17     29.87F
HENDERSON      SUNNY     82  66  57 W7        29.85S
OWENSBORO      SUNNY     83  68  60 W12       29.86S
HOPKINSVILLE   MOSUNNY   83  70  65 SW15      29.88S
BOWLING GREEN  SUNNY     85  65  51 W13       29.87S
GLASGOW        MOSUNNY   80  69  68 CALM      29.87S
$$

KYZ024-025-028>034-038-045-046-053-302200-
NORTH CENTRAL KENTUCKY

CITY           SKY/WX    TMP DP  RH WIND       PRES   REMARKS
LOUISVILLE/SDF MOSUNNY   84  64  50 W18       29.81F
LOUISVILLE/LOU MOSUNNY   83  64  52 W13G23    29.81F
FORT KNOX      SUNNY     82  66  58 SW13      29.83F
$$

KYZ035>037-039>044-047>052-055>060-089>105-302200-
NORTHEAST KENTUCKY

CITY           SKY/WX    TMP DP  RH WIND       PRES   REMARKS
LEXINGTON      MOSUNNY   82  63  52 SW10G23   29.84F
COVINGTON      LGT RAIN  65  62  90 SE5       29.83F FOG
FRANKFORT      MOSUNNY   83  63  50 W8        29.81F
$$

KYZ054-064>069-076>088-106>120-302200-
SOUTHEAST KENTUCKY

CITY           SKY/WX    TMP DP  RH WIND       PRES   REMARKS
JACKSON        CLOUDY    78  68  71 CALM      29.89F
LONDON         PTSUNNY   76  63  64 S10       29.89F
SOMERSET       SUNNY     73  64  73 SW8       29.90R
MIDDLESBORO    CLOUDY    70  68  92 W8G17     29.94R VSB 1/2
MONTICELLO     PTCLDY    76  69  79 SW5       29.92F
$$



USA.gov is the U.S. government's official web portal to all federal, state and local government web resources and services.